When you browse on this site, cookies collect data to enhance your experience and personalize the content and advertising you see.
Visit our Privacy Policy to learn more. By continuing to use the site, you agree to this use of cookies and data.
  • In Portugal
  • List of Countries
  • For 7 days
  • Water Temperature
  • Satellite Maps
  • Weather Map
  • Weather Widgets
  • user-avatar
    Login

    Hourly Weather Gabrovo

    Today, 17 November, Saturday

    Time Temperature Precipitation Wind Pressure Humidity
    00:00 -2°C° 0 mm 2 mps 709 mmHg 74%
    01:00 0°C° 0 mm 1 mps 709 mmHg 75%
    02:00 -3°C° 0 mm 2 mps 709 mmHg 74%
    03:00 -2°C° 0 mm 1 mps 709 mmHg 75%
    04:00 -2°C° 0 mm 1 mps 709 mmHg 76%
    05:00 -2°C° 0 mm 1 mps 709 mmHg 76%
    06:00 -2°C° 0 mm 1 mps 709 mmHg 76%
    07:00 -2°C° 0 mm 1 mps 709 mmHg 75%
    08:00 -2°C° 0 mm 1 mps 709 mmHg 74%
    09:00 -1°C° 0 mm 1 mps 709 mmHg 70%
    10:00 0°C° 0 mm 1 mps 709 mmHg 65%
    11:00 +1°C° 0 mm 1 mps 709 mmHg 61%
    12:00 +1°C° 0 mm 2 mps 709 mmHg 59%
    13:00 +1°C° 0 mm 2 mps 709 mmHg 58%
    14:00 +2°C° 0 mm 2 mps 709 mmHg 62%
    15:00 +1°C° 0 mm 2 mps 709 mmHg 65%
    16:00 +1°C° 0 mm 2 mps 709 mmHg 68%
    17:00 +1°C° 0 mm 2 mps 709 mmHg 71%
    18:00 +1°C° 0 mm 1 mps 709 mmHg 72%
    19:00 +1°C° 0 mm 1 mps 709 mmHg 74%
    20:00 +1°C° 0 mm 1 mps 709 mmHg 76%
    21:00 +1°C° 0 mm 1 mps 709 mmHg 76%
    22:00 +1°C° 0 mm 1 mps 709 mmHg 77%
    23:00 +1°C° 0 mm 1 mps 709 mmHg 77%

    Tomorrow, 18 November, Sunday

    Time Temperature Precipitation Wind Pressure Humidity
    00:00 +1°C° 0 mm 1 mps 709 mmHg 78%
    01:00 +1°C° 0 mm 1 mps 708 mmHg 78%
    02:00 +1°C° 0 mm 1 mps 708 mmHg 78%
    03:00 +1°C° 0 mm 1 mps 708 mmHg 78%
    04:00 +1°C° 0 mm 1 mps 708 mmHg 79%
    05:00 +1°C° 0 mm 1 mps 707 mmHg 79%
    06:00 +1°C° 0 mm 1 mps 707 mmHg 79%
    07:00 +2°C° 0 mm 1 mps 707 mmHg 80%
    08:00 +2°C° 0 mm 1 mps 706 mmHg 80%
    09:00 +2°C° 0.1 mm 1 mps 706 mmHg 79%
    10:00 +2°C° 0.1 mm 2 mps 706 mmHg 79%
    11:00 +2°C° 0.1 mm 2 mps 706 mmHg 78%
    12:00 +3°C° 0.1 mm 2 mps 705 mmHg 78%
    13:00 +3°C° 0.1 mm 2 mps 704 mmHg 78%
    14:00 +3°C° 0.1 mm 2 mps 704 mmHg 79%
    15:00 +3°C° 0.6 mm 2 mps 703 mmHg 81%
    16:00 +3°C° 0.6 mm 2 mps 702 mmHg 83%
    17:00 +2°C° 0.6 mm 2 mps 702 mmHg 86%
    18:00 +2°C° 1.4 mm 2 mps 701 mmHg 87%
    19:00 +2°C° 1.4 mm 2 mps 701 mmHg 88%
    20:00 +2°C° 1.4 mm 2 mps 700 mmHg 89%
    21:00 +2°C° 1.9 mm 2 mps 700 mmHg 89%
    22:00 +2°C° 1.9 mm 2 mps 699 mmHg 90%
    23:00 +2°C° 1.9 mm 2 mps 699 mmHg 90%

    Day after tomorrow, 19 November, Monday

    Time Temperature Precipitation Wind Pressure Humidity
    00:00 +2°C° 1.7 mm 2 mps 698 mmHg 91%
    01:00 +2°C° 1.7 mm 2 mps 698 mmHg 91%
    02:00 +3°C° 1.7 mm 2 mps 697 mmHg 91%
    03:00 +3°C° 0.7 mm 2 mps 697 mmHg 91%
    04:00 +3°C° 0.7 mm 2 mps 697 mmHg 90%
    05:00 +3°C° 0.7 mm 2 mps 696 mmHg 89%
    06:00 +3°C° 0.3 mm 2 mps 696 mmHg 88%
    07:00 +3°C° 0.3 mm 2 mps 697 mmHg 88%
    08:00 +3°C° 0.3 mm 2 mps 697 mmHg 87%
    09:00 +3°C° 0 mm 2 mps 697 mmHg 85%
    10:00 +4°C° 0 mm 2 mps 698 mmHg 82%
    11:00 +5°C° 0 mm 2 mps 699 mmHg 80%
    12:00 +5°C° 0 mm 2 mps 699 mmHg 78%
    13:00 +5°C° 0 mm 2 mps 699 mmHg 76%
    14:00 +6°C° 0 mm 2 mps 700 mmHg 74%
    15:00 +5°C° 0 mm 2 mps 700 mmHg 77%
    16:00 +4°C° 0 mm 2 mps 700 mmHg 79%
    17:00 +3°C° 0 mm 2 mps 700 mmHg 82%
    18:00 +3°C° 0 mm 2 mps 701 mmHg 83%
    19:00 +2°C° 0 mm 2 mps 701 mmHg 84%
    20:00 +2°C° 0 mm 2 mps 702 mmHg 84%
    21:00 +2°C° 0 mm 2 mps 702 mmHg 84%
    22:00 +2°C° 0 mm 1 mps 702 mmHg 84%
    23:00 +2°C° 0 mm 1 mps 703 mmHg 84%

    20 November, Tuesday

    Time Temperature Precipitation Wind Pressure Humidity
    00:00 +2°C° 0 mm 1 mps 703 mmHg 84%
    01:00 +2°C° 0 mm 1 mps 703 mmHg 84%
    02:00 +2°C° 0 mm 1 mps 703 mmHg 84%
    03:00 +2°C° 0 mm 1 mps 703 mmHg 85%
    04:00 +2°C° 0 mm 1 mps 703 mmHg 86%
    05:00 +2°C° 0 mm 1 mps 703 mmHg 86%
    06:00 +1°C° 0.1 mm 2 mps 703 mmHg 86%
    07:00 +1°C° 0.1 mm 2 mps 704 mmHg 87%
    08:00 +1°C° 0.1 mm 2 mps 704 mmHg 87%
    09:00 +2°C° 0.1 mm 2 mps 704 mmHg 85%
    10:00 +3°C° 0.1 mm 2 mps 704 mmHg 82%
    11:00 +4°C° 0.1 mm 2 mps 704 mmHg 80%
    12:00 +4°C° 0 mm 2 mps 704 mmHg 81%
    13:00 +4°C° 0 mm 2 mps 703 mmHg 81%
    14:00 +5°C° 0 mm 2 mps 703 mmHg 82%
    15:00 +5°C° 0.1 mm 2 mps 702 mmHg 85%
    16:00 +4°C° 0.1 mm 2 mps 702 mmHg 88%
    17:00 +4°C° 0.1 mm 2 mps 702 mmHg 90%
    18:00 +4°C° 0.2 mm 2 mps 702 mmHg 91%
    19:00 +4°C° 0.2 mm 2 mps 701 mmHg 92%
    20:00 +5°C° 0.2 mm 1 mps 701 mmHg 93%
    21:00 +6°C° 0.2 mm 1 mps 701 mmHg 94%
    22:00 +6°C° 0.2 mm 1 mps 701 mmHg 95%
    23:00 +6°C° 0.2 mm 1 mps 701 mmHg 95%

    21 November, Wednesday

    Time Temperature Precipitation Wind Pressure Humidity
    00:00 +6°C° 0.2 mm 1 mps 700 mmHg 96%
    01:00 +7°C° 0.2 mm 1 mps 700 mmHg 96%
    02:00 +7°C° 0.2 mm 1 mps 700 mmHg 97%
    03:00 +6°C° 0.3 mm 2 mps 699 mmHg 97%
    04:00 +6°C° 0.3 mm 2 mps 698 mmHg 97%
    05:00 +7°C° 0.3 mm 2 mps 698 mmHg 97%
    06:00 +7°C° 0.4 mm 2 mps 697 mmHg 97%
    07:00 +7°C° 0.4 mm 2 mps 697 mmHg 96%
    08:00 +8°C° 0.4 mm 2 mps 697 mmHg 96%
    09:00 +8°C° 1 mm 2 mps 696 mmHg 96%
    10:00 +8°C° 1 mm 2 mps 696 mmHg 95%
    11:00 +9°C° 1 mm 2 mps 696 mmHg 95%
    12:00 +9°C° 0.6 mm 2 mps 696 mmHg 92%
    13:00 +9°C° 0.6 mm 2 mps 696 mmHg 90%
    14:00 +9°C° 0.6 mm 3 mps 696 mmHg 87%
    15:00 +8°C° 0.5 mm 3 mps 696 mmHg 87%
    16:00 +7°C° 0.5 mm 3 mps 696 mmHg 87%
    17:00 +6°C° 0.5 mm 4 mps 697 mmHg 86%
    18:00 +5°C° 0.2 mm 4 mps 697 mmHg 85%
    19:00 +5°C° 0.2 mm 4 mps 698 mmHg 85%
    20:00 +5°C° 0.2 mm 4 mps 698 mmHg 84%
    21:00 +4°C° 0.1 mm 4 mps 698 mmHg 84%
    22:00 +4°C° 0.1 mm 4 mps 699 mmHg 84%
    23:00 +4°C° 0.1 mm 4 mps 699 mmHg 84%

    22 November, Thursday

    Time Temperature Precipitation Wind Pressure Humidity
    00:00 +4°C° 0.1 mm 3 mps 700 mmHg 84%
    01:00 +4°C° 0.1 mm 3 mps 700 mmHg 85%
    02:00 +4°C° 0.1 mm 3 mps 700 mmHg 85%
    03:00 +4°C° 0.1 mm 3 mps 701 mmHg 85%
    04:00 +4°C° 0.1 mm 3 mps 701 mmHg 86%
    05:00 +5°C° 0.1 mm 2 mps 701 mmHg 86%
    06:00 +5°C° 0.1 mm 2 mps 702 mmHg 86%
    07:00 +4°C° 0.1 mm 2 mps 702 mmHg 86%
    08:00 +4°C° 0.1 mm 2 mps 703 mmHg 87%
    09:00 +5°C° 0 mm 2 mps 703 mmHg 83%
    10:00 +6°C° 0 mm 2 mps 704 mmHg 80%
    11:00 +6°C° 0 mm 2 mps 704 mmHg 77%
    12:00 +7°C° 0 mm 2 mps 705 mmHg 75%
    13:00 +8°C° 0 mm 1 mps 705 mmHg 74%
    14:00 +9°C° 0 mm 1 mps 705 mmHg 73%
    15:00 +8°C° 0 mm 1 mps 705 mmHg 76%
    16:00 +7°C° 0 mm 1 mps 705 mmHg 80%
    17:00 +6°C° 0 mm 1 mps 705 mmHg 83%
    18:00 +6°C° 0 mm 1 mps 706 mmHg 84%
    19:00 +6°C° 0 mm 1 mps 706 mmHg 86%
    20:00 +5°C° 0 mm 1 mps 706 mmHg 87%
    21:00 +5°C° 0 mm 1 mps 706 mmHg 87%
    22:00 +5°C° 0 mm 1 mps 707 mmHg 87%
    23:00 +4°C° 0 mm 1 mps 707 mmHg 88%
    Show more